This demonstration page uses our WeatherBlox Daily Observations layout. Learn more.

Left ArrowRight Arrow

31.31129, -92.44514

Hourly Observations for August 10, 2022

Temp ( °F °C ) Dew Point ( °F °C ) Humidity (%) Winds ( mph kmh ) Pressure ( in mb ) Visibility ( mi km ) Precip ( " mm )
12:53 am 00:53 Clear 75 23.9 71 21.7 88 88 SW 3 6 30.05 1018 10 16 0.00 0.00
1:53 am 01:53 Clear 74 23.3 71 21.7 91 91 Calm 30.05 1018 10 16 0.00 0.00
2:53 am 02:53 Clear 74 23.3 71 21.7 91 91 SE 5 7 30.06 1018 10 16 0.00 0.00
3:53 am 03:53 Clear 74 23.3 71 21.7 91 91 Calm 30.05 1018 10 16 0.00 0.00
4:53 am 04:53 Clear 74 23.3 71 21.7 91 91 Calm 30.06 1018 9 14 0.00 0.00
5:53 am 05:53 Clear 74 23.3 71 21.7 91 91 Calm 30.07 1018 10 16 0.00 0.00
6:53 am 06:53 Sunny 74 23.3 71 21.7 91 91 Calm 30.09 1019 10 16 0.00 0.00
7:53 am 07:53 Mostly Sunny 76 24.4 73 22.8 91 91 Calm 30.10 1019 8 13 0.00 0.00
8:53 am 08:53 Partly Cloudy 80 26.7 74 23.3 82 82 Calm 30.11 1020 10 16 0.00 0.00
9:53 am 09:53 Sunny 82 27.8 75 23.9 79 79 WNW 5 7 30.10 1019 10 16 0.00 0.00
10:53 am 10:53 Partly Cloudy 86 30 75 23.9 70 70 WNW 6 9 30.10 1019 10 16 0.00 0.00
11:53 am 11:53 Partly Cloudy 89 31.7 75 23.9 63 63 NW 6 9 30.09 1019 10 16 0.00 0.00
12:53 pm 12:53 Sunny 92 33.3 74 23.3 56 56 N 8 13 30.06 1018 10 16 0.00 0.00
1:40 pm 13:40 Partly Cloudy with Nearby Thunderstorms 92 33.3 73 22.8 54 54 NNW 10 17 30.04 1017 10 16 0.00 0.00
1:53 pm 13:53 Partly Cloudy with Nearby Thunderstorms 94 34.4 73 22.8 51 51 NW 9 15 30.04 1017 10 16 0.00 0.00
2:44 pm 14:44 Mostly Cloudy with Thunderstorms 90 32.2 73 22.8 58 58 undefined N/A 30.04 1017 10 16 0.00 0.00
2:53 pm 14:53 Mostly Cloudy with Thunderstorms 82 27.8 73 22.8 74 74 NNE 14 22 30.06 1018 10 16 0.00 0.00
3:40 pm 15:40 Cloudy with Nearby Thunderstorms 77 25 73 22.8 88 88 SE 6 9 30.06 1018 10 16 0.01 0.13
3:53 pm 15:53 Cloudy with Nearby Thunderstorms 77 25 72 22.2 84 84 SSE 10 17 30.06 1018 10 16 0.01 0.13
4:19 pm 16:19 Sunny 77 25 72 22.2 84 84 SE 12 19 30.04 1017 10 16 0.00 0.00
4:53 pm 16:53 Sunny 77 25 72 22.2 84 84 SE 8 13 30.04 1017 10 16 0.01 0.13
5:53 pm 17:53 Sunny 80 26.7 71 21.7 74 74 SE 6 9 30.04 1017 10 16 0.01 0.13
6:53 pm 18:53 Sunny 80 26.7 73 22.8 79 79 SSE 7 11 30.01 1016 10 16 0.00 0.00
7:53 pm 19:53 Sunny 78 25.6 73 22.8 85 85 S 5 7 30.01 1016 10 16 0.00 0.00
8:53 pm 20:53 Clear 78 25.6 73 22.8 85 85 Calm 30.02 1017 10 16 0.00 0.00
9:53 pm 21:53 Clear 77 25 73 22.8 88 88 Calm 30.06 1018 10 16 0.00 0.00
10:53 pm 22:53 Clear 76 24.4 73 22.8 91 91 Calm 30.06 1018 9 14 0.00 0.00
11:53 pm 23:53 Mostly Clear with Mist and Fog 75 23.9 72 22.2 90 90 Calm 30.05 1018 6 10 0.00 0.00

Powered by AerisWeather